Warning: Javascript must be enabled to use all the features on this page!


Page Loading - Please Wait...

Click to hideNews Bulletins

USGS 04189260 Blanchard River at Ottawa OH

PROVISIONAL DATA SUBJECT TO REVISION

Click to hidestation-specific text
Station operated in cooperation with the Village of Ottawa and the National Streamflow Information Program.
 04189260 Blanchard River at Ottawa, OH
 LOCATION.--Lat 41°01'01", long 84°02'49", Putnam County, OH, Hydrologic 
     Unit 04100008, on right bank at downstream side of Oak Street, 200 ft. upstream 
     of B&O railroad bridge, 800 ft. upstream of SR65 bridge, 1,200 ft. southeast of 
     intersection of SR65 and US RT224 in the village of Ottawa, OH.
 DRAINAGE AREA.--628 mi2.
 PERIOD OF RECORD.--October 2009 to current water year.

Boating safety tips
Available Parameters Available Period
All 2 Available Parameters for this site
  
00065 Gage height 2014-05-21  2014-09-18
00060 Discharge 2009-10-01  2014-09-18

Graph
Graph w/ stats
Graph w/o stats
Graph w/ (up to 3) parms
Table
Tab-separated
Days  (7)
 

  -- or --
Begin date
 

End date
 

Summary of all available data for this site
Instantaneous-data availability statement
Gage height, feet
TIMESep 11Sep 12Sep 13Sep 14Sep 15Sep 16Sep 17Sep 18
00:00 EDT6.34P  11.38P  8.17P  6.62P  5.84P  5.56P  5.40P  5.29P  
00:30 EDT6.48P  11.33P  8.13P  6.60P  5.83P  5.56P  5.41P  5.29P  
01:00 EDT6.64P  11.27P  8.08P  6.57P  5.82P  5.55P  5.41P  5.29P  
01:30 EDT6.85P  11.21P  8.04P  6.55P  5.81P  5.55P  5.41P  5.28P  
02:00 EDT7.08P  11.14P  8.00P  6.53P  5.80P  5.55P  5.41P  5.28P  
02:30 EDT7.31P  11.07P  7.96P  6.51P  5.79P  5.55P  5.41P  5.28P  
03:00 EDT7.53P  10.99P  7.91P  6.49P  5.78P  5.54P  5.41P  5.27P  
03:30 EDT7.72P  10.92P  7.87P  6.46P  5.77P  5.54P  5.41P  5.27P  
04:00 EDT7.89P  10.84P  7.83P  6.45P  5.76P  5.54P  5.42P  5.27P  
04:30 EDT8.01P  10.77P  7.79P  6.42P  5.75P  5.54P  5.42P  5.27P  
05:00 EDT8.12P  10.69P  7.76P  6.40P  5.74P  5.53P  5.42P  5.26P  
05:30 EDT8.20P  10.59P  7.71P  6.39P  5.73P  5.53P  5.42P  5.26P  
06:00 EDT8.27P  10.52P  7.67P  6.36P  5.72P  5.53P  5.43P  5.26P  
06:30 EDT8.31P  10.44P  7.63P  6.34P  5.71P  5.52P  5.43P  5.25P  
07:00 EDT8.33P  10.35P  7.60P  6.32P  5.70P  5.52P  5.43P  5.25P  
07:30 EDT8.34P  10.27P  7.57P  6.31P  5.70P  5.51P  5.44P  5.25P  
08:00 EDT8.34P  10.19P  7.53P  6.29P  5.69P  5.51P  5.44P  5.25P  
08:30 EDT8.33P  10.11P  7.50P  6.27P  5.68P  5.50P  5.44P  5.24P  
09:00 EDT8.32P  10.03P  7.46P  6.25P  5.67P  5.50P  5.44P  5.24P  
09:30 EDT8.32P  9.95P  7.42P  6.23P  5.66P  5.50P  5.45P  5.24P  
10:00 EDT8.36P  9.87P  7.39P  6.22P  5.66P  5.49P  5.45P  5.24P  
10:30 EDT8.43P  9.80P  7.36P  6.20P  5.65P  5.49P  5.45P  5.23P  
11:00 EDT8.59P  9.72P  7.33P  6.18P  5.64P  5.48P  5.45P  5.23P  
11:30 EDT8.80P  9.65P  7.29P  6.17P  5.63P  5.48P  5.46P  5.22P  
12:00 EDT9.07P  9.57P  7.26P  6.15P  5.63P  5.47P  5.46P  5.22P  
12:30 EDT9.37P  9.50P  7.23P  6.13P  5.62P  5.47P  5.46P  5.22P  
13:00 EDT9.67P  9.43P  7.20P  6.12P  5.62P  5.46P  5.46P  5.21P  
13:30 EDT9.96P  9.36P  7.17P  6.10P  5.61P  5.46P  5.46P  5.21P  
14:00 EDT10.20P  9.29P  7.15P  6.09P  5.61P  5.46P  5.46P  5.21P  
14:30 EDT10.46P  9.23P  7.12P  6.07P  5.60P  5.45P  5.45P  5.20P  
15:00 EDT10.66P  9.16P  7.09P  6.06P  5.60P  5.45P  5.44P  5.20P  
15:30 EDT10.83P  9.10P  7.06P  6.04P  5.59P  5.44P  5.43P  5.20P  
16:00 EDT10.98P  9.03P  7.03P  6.03P  5.60P  5.44P  5.42P  5.19P  
16:30 EDT11.11P  8.97P  7.01P  6.02P  5.59P  5.44P  5.41P  5.19P  
17:00 EDT11.23P  8.92P  6.98P  6.00P  5.59P  5.44P  5.40P  5.19P  
17:30 EDT11.31P  8.86P  6.95P  5.99P  5.58P  5.43P  5.38P  5.18P  
18:00 EDT11.39P  8.80P  6.92P  5.98P  5.58P  5.43P  5.37P  5.18P  
18:30 EDT11.45P  8.74P  6.90P  5.96P  5.57P  5.43P  5.36P  5.18P  
19:00 EDT11.50P  8.68P  6.87P  5.95P  5.57P  5.42P  5.35P  5.17P  
19:30 EDT11.54P  8.63P  6.84P  5.94P  5.57P  5.42P  5.35P  5.16P  
20:00 EDT11.56P  8.57P  6.82P  5.93P  5.56P  5.42P  5.34P   
20:30 EDT11.58P  8.52P  6.79P  5.92P  5.56P  5.41P  5.33P   
21:00 EDT11.57P  8.47P  6.77P  5.91P  5.56P  5.41P  5.32P   
21:30 EDT11.57P  8.42P  6.74P  5.89P  5.57P  5.41P  5.32P   
22:00 EDT11.54P  8.37P  6.72P  5.88P  5.57P  5.41P  5.31P   
22:30 EDT11.52P  8.32P  6.69P  5.87P  5.57P  5.41P  5.31P   
23:00 EDT11.48P  8.27P  6.67P  5.86P  5.57P  5.41P  5.30P   
23:30 EDT11.44P  8.22P  6.64P  5.85P  5.56P  5.41P  5.30P   
COUNT4848484848484840
MAX11.5811.388.176.625.845.565.465.29
MIN6.348.226.645.855.565.415.305.16

Explanation
  P  Provisional data subject to revision.